This demonstration page uses our WeatherBlox Daily Observations layout. Learn more.

41.55636, -103.73856

Hourly Observations for May 6, 2015

Temp ( °F °C ) Dew Point ( °F °C ) Humidity (%) Winds ( mph kmh ) Pressure ( in mb ) Visibility ( mi km ) Precip ( " mm )
12:53 am 00:53 Cloudy with Light Rain 52 11 N/A N/A ESE 13 20 29.68 1005 6 9.65604 0 0.0254
1:53 am 01:53 Cloudy with Light Rain 52 11 N/A N/A ESE 9 15 29.66 1004 6 9.65604 0.03 0.762
2:08 am 02:08 Cloudy with Light Rain 52 11 N/A N/A ESE 12 19 29.62 1003 5 8.0467 0 0
2:53 am 02:53 Cloudy with Light Rain 53 11.7 53 11.7 100 100 E 7 11 29.64 1004 3 4.82802 0.03 0.762
3:53 am 03:53 Cloudy with Light Rain 53 11.7 53 11.7 100 100 E 8 13 29.62 1003 5 8.0467 0.02 0.508
4:07 am 04:07 Cloudy with Mist and Fog 53 11.7 53 11.7 100 100 E 8 13 29.62 1003 6 9.65604 0 0.0254
4:23 am 04:23 Cloudy 53 11.7 53 11.7 100 100 E 7 11 29.62 1003 7 11.26538 0 0.0254
4:53 am 04:53 Cloudy with Light Rain 53 11.7 53 11.7 100 100 E 8 13 29.61 1003 5 8.0467 0 0.0254
5:16 am 05:16 Cloudy with Light Rain 53 11.7 53 11.7 100 100 E 6 9 29.62 1003 2 3.21868 0.03 0.762
5:27 am 05:27 Cloudy with Light Rain 54 12 54 12 100 100 E 7 11 29.62 1003 4 6.43736 0 0
5:53 am 05:53 Cloudy 54 12.2 53 11.7 97 97 E 6 9 29.6 1003 10 16.0934 0.04 1.016
6:44 am 06:44 Cloudy with Light Rain 54 12 52 11 94 94 ESE 9 15 29.62 1003 2.5 4.02335 0 0
6:51 am 06:51 Cloudy 54 12 52 11 94 94 ESE 12 19 29.62 1003 10 16.0934 0.01 0.254
6:53 am 06:53 Cloudy 53 11.7 52 11.1 96 96 ESE 12 19 29.61 1003 10 16.0934 0.01 0.254
7:35 am 07:35 Cloudy with Mist and Fog 53 11.7 52 11.1 96 96 E 13 20 29.62 1003 3 4.82802 0 0
7:42 am 07:42 Cloudy with Mist and Fog 54 12 52 11 94 94 ESE 10 17 29.62 1003 2.5 4.02335 0 0
7:49 am 07:49 Cloudy with Mist and Fog 54 12 52 11 94 94 ESE 13 20 29.62 1003 4 6.43736 0 0
7:53 am 07:53 Cloudy with Mist and Fog 53 11.7 52 11.1 96 96 ESE 12 19 29.61 1003 5 8.0467 0 0
8:51 am 08:51 Cloudy 55 13 54 12 94 94 ESE 12 19 29.59 1002 10 16.0934 0 0.0254
8:53 am 08:53 Cloudy 55 12.8 53 11.7 93 93 ESE 12 19 29.61 1003 10 16.0934 0 0.0254
9:51 am 09:51 Cloudy 57 14 52 11 82 82 ESE 7 11 29.59 1002 10 16.0934 0 0
9:53 am 09:53 Cloudy 57 13.9 52 11.1 83 83 SE 8 13 29.6 1003 10 16.0934 0 0
10:38 am 10:38 Cloudy 59 15 52 11 77 77 E 7 11 29.56 1001 10 16.0934 0 0
10:53 am 10:53 Cloudy 60 15.6 53 11.7 78 78 E 8 13 29.58 1002 10 16.0934 0 0
11:26 am 11:26 Cloudy 57 14 52 11 82 82 E 10 17 29.56 1001 10 16.0934 0 0
11:53 am 11:53 Cloudy 59 15 51 10.6 75 75 ESE 7 11 29.58 1002 10 16.0934 0 0
12:30 pm 12:30 Cloudy 61 16 52 11 72 72 VRB 7 11 29.53 1000 10 16.0934 0 0
12:43 pm 12:43 Cloudy 61 16.1 52 11.1 72 72 ESE 6 9 29.53 1000 10 16.0934 0 0
12:53 pm 12:53 Cloudy 62 16.7 51 10.6 67 67 NE 6 9 29.56 1001 10 16.0934 0 0
1:35 pm 13:35 Cloudy with Light Rain 58 14.4 53 11.7 84 84 N 6 9 29.53 1000 2.5 4.02335 0 0.0254
1:43 pm 13:43 Cloudy with Light Rain 58 14.4 53 11.7 84 84 Calm 29.53 1000 2 3.21868 0.01 0.254
1:53 pm 13:53 Cloudy with Light Rain 59 15 54 12.2 83 83 undefined N/A 29.56 1001 6 9.65604 0.02 0.508
2:13 pm 14:13 Cloudy 57 13.9 54 12.2 90 90 NW 9 15 29.53 1000 10 16.0934 0 0.0254
2:39 pm 14:39 Cloudy with Light Rain 58 14.4 54 12.2 87 87 NW 6 9 29.53 1000 6 9.65604 0 0.0254
2:53 pm 14:53 Cloudy with Light Rain 59 15 54 12.2 83 83 NW 6 9 29.55 1001 9 14.48406 0 0.0254
3:53 pm 15:53 Cloudy with Light Rain 58 14.4 54 12.2 87 87 N 10 17 29.54 1000 8 12.87472 0.02 0.508
4:53 pm 16:53 Cloudy with Light Rain 58 14.4 55 12.8 90 90 NNE 8 13 29.55 1001 5 8.0467 0.01 0.254
5:41 pm 17:41 Cloudy with Light Rain 58 14.4 54 12.2 87 87 NW 8 13 29.56 1001 2.5 4.02335 0.05 1.27
5:48 pm 17:48 Cloudy with Light Rain 59 15 54 12 82 82 NW 10 17 29.53 1000 10 16.0934 0 0
5:53 pm 17:53 Cloudy with Light Rain 59 15 54 12.2 83 83 NW 10 17 29.56 1001 10 16.0934 0.06 1.524
6:53 pm 18:53 Cloudy 58 14.4 54 12.2 87 87 NW 12 19 29.58 1002 10 16.0934 0.01 0.254
7:34 pm 19:34 Cloudy 55 13 52 11 88 88 NW 22 35 29.59 1002 10 16.0934 0 0
7:53 pm 19:53 Cloudy 53 11.7 48 8.9 83 83 NW 22 35 29.64 1004 10 16.0934 0 0.0254
8:53 pm 20:53 Cloudy with Light Rain 50 10 45 7.2 83 83 NW 23 37 29.69 1005 10 16.0934 0 0.0254
9:53 pm 21:53 Cloudy 50 10 45 7.2 83 83 NW 23 37 29.72 1006 10 16.0934 0 0.0254
10:53 pm 22:53 Cloudy 50 10 45 7.2 83 83 WNW 17 28 29.72 1007 10 16.0934 0 0
11:53 pm 23:53 Cloudy with Light Rain 48 8.9 45 7.2 89 89 WNW 20 31 29.74 1007 3 4.82802 0.01 0.254

Powered by AerisWeather